TAM3816 SBBR-SBSV

Flight info

Callsign TAM3816
Flight time 1h 22m
Altitude 39000
Route UGTAK UZ19 DOTBI
Aircraft A320/M-SDE3FGHIRWY/LB1

Departure

Time 2026-05-06 15:34
Airport Presidente Juscelino Kubitschek International Airport (SBBR)

Arrival

Time 2026-05-06 16:57
Airport Deputado Luiz Eduardo Magalhães International Airport (SBSV)
Time Latitude Longitude Altitude Speed Heading
2026-05-06 14:56 -15.87127 -47.91861 3465 ft 0 kts 176°
2026-05-06 15:18 -15.87110 -47.91862 3465 ft 5 kts 180°
2026-05-06 15:18 -15.87089 -47.91863 3464 ft 3 kts 161°
2026-05-06 15:18 -15.87070 -47.91873 3464 ft 2 kts 142°
2026-05-06 15:18 -15.87061 -47.91884 3464 ft 2 kts 137°
2026-05-06 15:19 -15.87051 -47.91889 3465 ft 2 kts 173°
2026-05-06 15:19 -15.87043 -47.91890 3465 ft 0 kts 177°
2026-05-06 15:23 -15.87050 -47.91889 3465 ft 2 kts 168°
2026-05-06 15:23 -15.87058 -47.91883 3465 ft 3 kts 142°
2026-05-06 15:23 -15.87068 -47.91851 3465 ft 7 kts 88°
2026-05-06 15:23 -15.87064 -47.91793 3465 ft 9 kts 86°
2026-05-06 15:24 -15.87059 -47.91717 3465 ft 12 kts 86°
2026-05-06 15:24 -15.87053 -47.91630 3465 ft 11 kts 86°
2026-05-06 15:24 -15.87000 -47.91596 3465 ft 10 kts 356°
2026-05-06 15:24 -15.86934 -47.91602 3465 ft 9 kts 355°
2026-05-06 15:25 -15.86879 -47.91606 3463 ft 7 kts 357°
2026-05-06 15:25 -15.86849 -47.91608 3465 ft 6 kts 356°
2026-05-06 15:25 -15.86802 -47.91611 3465 ft 4 kts 356°
2026-05-06 15:25 -15.86774 -47.91613 3464 ft 7 kts 355°
2026-05-06 15:26 -15.86723 -47.91616 3465 ft 7 kts 356°
2026-05-06 15:26 -15.86681 -47.91620 3464 ft 6 kts 356°
2026-05-06 15:26 -15.86614 -47.91623 3465 ft 12 kts 356°
2026-05-06 15:26 -15.86527 -47.91628 3464 ft 12 kts 357°
2026-05-06 15:27 -15.86481 -47.91679 3464 ft 10 kts 272°
2026-05-06 15:27 -15.86485 -47.91745 3464 ft 8 kts 266°
2026-05-06 15:27 -15.86489 -47.91798 3464 ft 7 kts 266°
2026-05-06 15:27 -15.86492 -47.91843 3464 ft 6 kts 264°
2026-05-06 15:28 -15.86492 -47.91845 3464 ft 0 kts 265°
2026-05-06 15:28 -15.86492 -47.91858 3464 ft 6 kts 265°
2026-05-06 15:28 -15.86495 -47.91902 3463 ft 12 kts 266°
2026-05-06 15:28 -15.86502 -47.92007 3462 ft 10 kts 266°
2026-05-06 15:29 -15.86506 -47.92077 3462 ft 9 kts 266°
2026-05-06 15:29 -15.86510 -47.92138 3462 ft 7 kts 266°
2026-05-06 15:29 -15.86514 -47.92186 3462 ft 7 kts 265°
2026-05-06 15:29 -15.86519 -47.92252 3462 ft 10 kts 265°
2026-05-06 15:30 -15.86524 -47.92336 3461 ft 13 kts 266°
2026-05-06 15:30 -15.86528 -47.92421 3461 ft 11 kts 266°
2026-05-06 15:30 -15.86532 -47.92491 3462 ft 8 kts 266°
2026-05-06 15:30 -15.86536 -47.92546 3462 ft 8 kts 265°
2026-05-06 15:31 -15.86541 -47.92609 3461 ft 8 kts 265°
2026-05-06 15:31 -15.86546 -47.92669 3461 ft 8 kts 265°
2026-05-06 15:31 -15.86549 -47.92725 3461 ft 7 kts 266°
2026-05-06 15:32 -15.86501 -47.92767 3461 ft 4 kts 355°
2026-05-06 15:32 -15.86474 -47.92769 3461 ft 3 kts 356°
2026-05-06 15:32 -15.86456 -47.92770 3461 ft 2 kts 356°
2026-05-06 15:32 -15.86422 -47.92763 3461 ft 8 kts 29°
2026-05-06 15:33 -15.86367 -47.92745 3460 ft 7 kts 20°
2026-05-06 15:33 -15.86353 -47.92697 3460 ft 9 kts 86°
2026-05-06 15:33 -15.86337 -47.92467 3464 ft 66 kts 85°
2026-05-06 15:33 -15.86292 -47.91770 3462 ft 125 kts 86°
2026-05-06 15:34 -15.86229 -47.90710 3572 ft 161 kts 88°
2026-05-06 15:34 -15.86168 -47.89490 4054 ft 183 kts 89°
2026-05-06 15:34 -15.86077 -47.88133 4773 ft 192 kts 86°
2026-05-06 15:34 -15.85981 -47.86698 5360 ft 208 kts 86°
2026-05-06 15:35 -15.85876 -47.85118 5972 ft 228 kts 86°
2026-05-06 15:35 -15.85765 -47.83431 6648 ft 246 kts 86°
2026-05-06 15:35 -15.85644 -47.81601 7360 ft 260 kts 86°
2026-05-06 15:35 -15.85453 -47.79711 8241 ft 265 kts 75°
2026-05-06 15:36 -15.84688 -47.77960 9158 ft 269 kts 60°
2026-05-06 15:36 -15.83727 -47.76279 10042 ft 273 kts 60°
2026-05-06 15:36 -15.82729 -47.74561 10649 ft 284 kts 59°
2026-05-06 15:36 -15.81661 -47.72759 11075 ft 302 kts 59°
2026-05-06 15:37 -15.80524 -47.70859 11483 ft 318 kts 58°
2026-05-06 15:37 -15.79334 -47.68880 12059 ft 325 kts 59°
2026-05-06 15:37 -15.78125 -47.66872 12696 ft 331 kts 58°
2026-05-06 15:37 -15.76896 -47.64827 13259 ft 337 kts 59°
2026-05-06 15:38 -15.76070 -47.63451 13577 ft 341 kts 59°
2026-05-06 15:38 -15.74801 -47.61331 14140 ft 348 kts 59°
2026-05-06 15:38 -15.73515 -47.59182 14688 ft 352 kts 59°
2026-05-06 15:38 -15.72214 -47.57009 15289 ft 356 kts 59°
2026-05-06 15:39 -15.70901 -47.54819 15874 ft 359 kts 59°
2026-05-06 15:39 -15.69571 -47.52607 16461 ft 363 kts 60°
2026-05-06 15:39 -15.68226 -47.50374 17052 ft 366 kts 60°
2026-05-06 15:39 -15.66873 -47.48122 17621 ft 370 kts 60°
2026-05-06 15:40 -15.65507 -47.45845 18181 ft 373 kts 60°
2026-05-06 15:40 -15.64146 -47.43573 18678 ft 377 kts 60°
2026-05-06 15:40 -15.62752 -47.41248 19141 ft 381 kts 60°
2026-05-06 15:40 -15.61340 -47.38897 19610 ft 385 kts 60°
2026-05-06 15:41 -15.59915 -47.36529 20082 ft 389 kts 61°
2026-05-06 15:41 -15.58475 -47.34138 20548 ft 393 kts 60°
2026-05-06 15:41 -15.57021 -47.31721 21018 ft 397 kts 60°
2026-05-06 15:41 -15.55551 -47.29280 21491 ft 401 kts 60°
2026-05-06 15:42 -15.54070 -47.26818 21968 ft 404 kts 61°
2026-05-06 15:42 -15.52576 -47.24336 22436 ft 408 kts 61°
2026-05-06 15:42 -15.51065 -47.21830 22918 ft 411 kts 61°
2026-05-06 15:42 -15.49542 -47.19305 23378 ft 415 kts 61°
2026-05-06 15:43 -15.48007 -47.16757 23826 ft 419 kts 61°
2026-05-06 15:43 -15.46481 -47.14218 24197 ft 422 kts 61°
2026-05-06 15:43 -15.44943 -47.11661 24548 ft 426 kts 61°
2026-05-06 15:43 -15.43364 -47.09043 24902 ft 430 kts 61°
2026-05-06 15:44 -15.41769 -47.06405 25254 ft 434 kts 62°
2026-05-06 15:44 -15.40162 -47.03740 25595 ft 437 kts 62°
2026-05-06 15:44 -15.38549 -47.01056 25934 ft 441 kts 62°
2026-05-06 15:44 -15.36917 -46.98347 26269 ft 444 kts 62°
2026-05-06 15:45 -15.35271 -46.95622 26604 ft 448 kts 62°
2026-05-06 15:45 -15.33607 -46.92878 26927 ft 451 kts 62°
2026-05-06 15:45 -15.31930 -46.90116 27233 ft 455 kts 62°
2026-05-06 15:45 -15.30241 -46.87328 27535 ft 458 kts 62°
2026-05-06 15:46 -15.29116 -46.85468 27742 ft 460 kts 62°
2026-05-06 15:46 -15.26831 -46.81691 28160 ft 464 kts 62°
2026-05-06 15:46 -15.25110 -46.78851 28449 ft 468 kts 62°
2026-05-06 15:46 -15.23370 -46.75981 28748 ft 471 kts 62°
2026-05-06 15:47 -15.21626 -46.73104 29040 ft 474 kts 62°
2026-05-06 15:47 -15.19862 -46.70193 29333 ft 477 kts 62°
2026-05-06 15:47 -15.18115 -46.67314 29598 ft 480 kts 62°
2026-05-06 15:47 -15.16336 -46.64380 29880 ft 483 kts 62°
2026-05-06 15:48 -15.14544 -46.61431 30154 ft 485 kts 62°
2026-05-06 15:48 -15.12738 -46.58466 30367 ft 488 kts 62°
2026-05-06 15:48 -15.10921 -46.55483 30581 ft 491 kts 63°
2026-05-06 15:48 -15.09097 -46.52492 30821 ft 492 kts 63°
2026-05-06 15:49 -15.07266 -46.49488 31051 ft 494 kts 63°
2026-05-06 15:49 -15.05433 -46.46473 31280 ft 496 kts 63°
2026-05-06 15:49 -15.03596 -46.43443 31509 ft 498 kts 63°
2026-05-06 15:49 -15.01751 -46.40398 31739 ft 499 kts 63°
2026-05-06 15:50 -14.99906 -46.37357 32052 ft 499 kts 63°
2026-05-06 15:50 -14.98057 -46.34323 32377 ft 498 kts 63°
2026-05-06 15:50 -14.96207 -46.31296 32670 ft 497 kts 63°
2026-05-06 15:50 -14.94356 -46.28271 32889 ft 497 kts 63°
2026-05-06 15:51 -14.92504 -46.25238 33147 ft 498 kts 64°
2026-05-06 15:51 -14.90836 -46.22134 33459 ft 490 kts 72°
2026-05-06 15:51 -14.89613 -46.18886 33784 ft 481 kts 80°
2026-05-06 15:51 -14.88622 -46.15579 34079 ft 481 kts 80°
2026-05-06 15:52 -14.87621 -46.12274 34337 ft 481 kts 80°
2026-05-06 15:52 -14.86611 -46.08971 34575 ft 482 kts 79°
2026-05-06 15:52 -14.85592 -46.05666 34803 ft 482 kts 79°
2026-05-06 15:52 -14.84573 -46.02360 35016 ft 483 kts 79°
2026-05-06 15:53 -14.83565 -45.99087 35211 ft 484 kts 79°
2026-05-06 15:53 -14.82572 -45.95854 35403 ft 484 kts 79°
2026-05-06 15:53 -14.81554 -45.92532 35607 ft 485 kts 79°
2026-05-06 15:53 -14.80536 -45.89202 35796 ft 485 kts 79°
2026-05-06 15:54 -14.79517 -45.85875 35993 ft 486 kts 78°
2026-05-06 15:54 -14.78492 -45.82548 36187 ft 486 kts 78°
2026-05-06 15:54 -14.77464 -45.79215 36369 ft 487 kts 78°
2026-05-06 15:54 -14.76439 -45.75882 36548 ft 487 kts 78°
2026-05-06 15:55 -14.75414 -45.72546 36727 ft 488 kts 78°
2026-05-06 15:55 -14.74383 -45.69186 36894 ft 488 kts 78°
2026-05-06 15:55 -14.73352 -45.65834 37063 ft 489 kts 78°
2026-05-06 15:55 -14.72333 -45.62532 37214 ft 489 kts 77°
2026-05-06 15:56 -14.71287 -45.59135 37374 ft 490 kts 77°
2026-05-06 15:56 -14.70265 -45.55823 37529 ft 490 kts 77°
2026-05-06 15:56 -14.69218 -45.52424 37681 ft 491 kts 77°
2026-05-06 15:56 -14.68883 -45.51333 37728 ft 491 kts 77°
2026-05-06 15:57 -14.67157 -45.45742 37972 ft 491 kts 77°
2026-05-06 15:57 -14.66114 -45.42375 38107 ft 492 kts 77°
2026-05-06 15:57 -14.65071 -45.39010 38247 ft 492 kts 77°
2026-05-06 15:57 -14.64026 -45.35632 38376 ft 493 kts 76°
2026-05-06 15:58 -14.62978 -45.32255 38514 ft 493 kts 76°
2026-05-06 15:58 -14.61933 -45.28884 38652 ft 493 kts 76°
2026-05-06 15:58 -14.60889 -45.25506 38784 ft 493 kts 76°
2026-05-06 15:58 -14.59846 -45.22133 38895 ft 493 kts 76°
2026-05-06 15:59 -14.58803 -45.18766 39044 ft 492 kts 76°
2026-05-06 15:59 -14.57768 -45.15436 39094 ft 494 kts 76°
2026-05-06 15:59 -14.55665 -45.08672 39105 ft 495 kts 76°
2026-05-06 16:00 -14.53554 -45.01901 39100 ft 495 kts 76°
2026-05-06 16:00 -14.51438 -44.95128 39104 ft 496 kts 76°
2026-05-06 16:01 -14.49332 -44.88363 39105 ft 496 kts 76°
2026-05-06 16:01 -14.47213 -44.81584 39092 ft 496 kts 76°
2026-05-06 16:02 -14.45096 -44.74802 39095 ft 496 kts 76°
2026-05-06 16:02 -14.42998 -44.68064 39106 ft 497 kts 76°
2026-05-06 16:03 -14.40901 -44.61368 39105 ft 496 kts 76°
2026-05-06 16:03 -14.38758 -44.54593 39093 ft 497 kts 76°
2026-05-06 16:04 -14.36619 -44.47818 39091 ft 497 kts 76°
2026-05-06 16:04 -14.34487 -44.41020 39090 ft 497 kts 76°
2026-05-06 16:05 -14.32359 -44.34217 39087 ft 498 kts 76°
2026-05-06 16:05 -14.30233 -44.27463 39087 ft 498 kts 76°
2026-05-06 16:06 -14.28071 -44.20663 39093 ft 499 kts 76°
2026-05-06 16:06 -14.25916 -44.13866 39084 ft 499 kts 76°
2026-05-06 16:07 -14.23772 -44.07055 39090 ft 499 kts 76°
2026-05-06 16:07 -14.21637 -44.00286 39089 ft 499 kts 76°
2026-05-06 16:08 -14.19482 -43.93485 39079 ft 499 kts 76°
2026-05-06 16:08 -14.17325 -43.86695 39079 ft 499 kts 76°
2026-05-06 16:09 -14.15161 -43.79894 39074 ft 499 kts 76°
2026-05-06 16:09 -14.13004 -43.73097 39074 ft 499 kts 76°
2026-05-06 16:10 -14.10835 -43.66288 39072 ft 499 kts 76°
2026-05-06 16:10 -14.08674 -43.59487 39065 ft 499 kts 76°
2026-05-06 16:11 -14.06513 -43.52693 39069 ft 499 kts 76°
2026-05-06 16:11 -14.04354 -43.45949 39054 ft 499 kts 76°
2026-05-06 16:12 -14.02185 -43.39150 39064 ft 499 kts 76°
2026-05-06 16:12 -14.00012 -43.32355 39063 ft 499 kts 76°
2026-05-06 16:13 -13.97860 -43.25644 39061 ft 499 kts 76°
2026-05-06 16:13 -13.95685 -43.18844 39064 ft 499 kts 76°
2026-05-06 16:14 -13.93508 -43.12050 39064 ft 499 kts 76°
2026-05-06 16:14 -13.91337 -43.05312 39058 ft 499 kts 76°
2026-05-06 16:15 -13.89159 -42.98527 39061 ft 499 kts 76°
2026-05-06 16:15 -13.86980 -42.91733 39062 ft 499 kts 76°
2026-05-06 16:16 -13.84782 -42.84944 39072 ft 500 kts 76°
2026-05-06 16:16 -13.82587 -42.78160 39080 ft 500 kts 76°
2026-05-06 16:17 -13.80402 -42.71375 39087 ft 500 kts 76°
2026-05-06 16:17 -13.78225 -42.64624 39092 ft 500 kts 76°
2026-05-06 16:18 -13.76031 -42.57836 39092 ft 500 kts 76°
2026-05-06 16:18 -13.73821 -42.51046 39104 ft 500 kts 76°
2026-05-06 16:19 -13.71620 -42.44266 39102 ft 500 kts 75°
2026-05-06 16:19 -13.69414 -42.37484 39102 ft 500 kts 75°
2026-05-06 16:20 -13.67222 -42.30738 39104 ft 499 kts 75°
2026-05-06 16:20 -13.65020 -42.23956 39103 ft 500 kts 75°
2026-05-06 16:21 -13.62823 -42.17177 39107 ft 500 kts 75°
2026-05-06 16:21 -13.60607 -42.10402 39105 ft 500 kts 75°
2026-05-06 16:22 -13.58385 -42.03623 39107 ft 500 kts 75°
2026-05-06 16:22 -13.56170 -41.96847 39109 ft 499 kts 75°
2026-05-06 16:23 -13.53987 -41.90178 39106 ft 499 kts 75°
2026-05-06 16:23 -13.51776 -41.83416 39108 ft 498 kts 75°
2026-05-06 16:24 -13.49562 -41.76663 39108 ft 498 kts 75°
2026-05-06 16:24 -13.47340 -41.69906 39118 ft 498 kts 75°
2026-05-06 16:25 -13.45128 -41.63154 39121 ft 498 kts 75°
2026-05-06 16:25 -13.42931 -41.56449 39126 ft 498 kts 74°
2026-05-06 16:26 -13.41074 -41.50799 39122 ft 498 kts 74°
2026-05-06 16:26 -13.38853 -41.44063 39123 ft 498 kts 74°
2026-05-06 16:27 -13.36642 -41.37379 39130 ft 498 kts 74°
2026-05-06 16:27 -13.34420 -41.30646 39127 ft 497 kts 74°
2026-05-06 16:28 -13.32198 -41.23917 39120 ft 497 kts 74°
2026-05-06 16:28 -13.29977 -41.17188 39118 ft 497 kts 74°
2026-05-06 16:29 -13.27767 -41.10513 39115 ft 497 kts 74°
2026-05-06 16:29 -13.25547 -41.03797 39106 ft 496 kts 73°
2026-05-06 16:30 -13.23701 -40.98222 39101 ft 496 kts 73°
2026-05-06 16:30 -13.21087 -40.90374 39141 ft 497 kts 75°
2026-05-06 16:31 -13.18865 -40.83680 39063 ft 500 kts 75°
2026-05-06 16:31 -13.16617 -40.76929 39072 ft 500 kts 75°
2026-05-06 16:32 -13.14377 -40.70180 39078 ft 499 kts 75°
2026-05-06 16:32 -13.12140 -40.63436 39080 ft 499 kts 75°
2026-05-06 16:33 -13.09917 -40.56753 39082 ft 499 kts 75°
2026-05-06 16:34 -13.06534 -40.46603 38768 ft 508 kts 75°
2026-05-06 16:34 -13.05395 -40.43192 37849 ft 513 kts 75°
2026-05-06 16:34 -13.04238 -40.39740 37167 ft 511 kts 74°
2026-05-06 16:34 -13.03089 -40.36317 36723 ft 503 kts 74°
2026-05-06 16:35 -13.01951 -40.32929 35911 ft 504 kts 74°
2026-05-06 16:35 -13.00814 -40.29539 35370 ft 499 kts 74°
2026-05-06 16:35 -12.99685 -40.26181 34815 ft 494 kts 74°
2026-05-06 16:35 -12.98565 -40.22856 34250 ft 491 kts 74°
2026-05-06 16:36 -12.97471 -40.19601 33643 ft 487 kts 74°
2026-05-06 16:36 -12.96380 -40.16340 33099 ft 480 kts 74°
2026-05-06 16:36 -12.95306 -40.13125 32551 ft 475 kts 73°
2026-05-06 16:36 -12.94237 -40.09942 32005 ft 469 kts 73°
2026-05-06 16:37 -12.93174 -40.06789 31483 ft 464 kts 73°
2026-05-06 16:37 -12.92124 -40.03675 30953 ft 460 kts 73°
2026-05-06 16:37 -12.91085 -40.00594 30457 ft 455 kts 72°
2026-05-06 16:37 -12.90056 -39.97542 29910 ft 450 kts 72°
2026-05-06 16:38 -12.89041 -39.94528 29425 ft 444 kts 72°
2026-05-06 16:38 -12.88040 -39.91554 28951 ft 438 kts 72°
2026-05-06 16:38 -12.87056 -39.88624 28497 ft 431 kts 72°
2026-05-06 16:38 -12.86155 -39.85755 28046 ft 425 kts 78°
2026-05-06 16:39 -12.85713 -39.82788 27589 ft 418 kts 89°
2026-05-06 16:39 -12.85719 -39.79835 27140 ft 412 kts 93°
2026-05-06 16:39 -12.85757 -39.76897 26665 ft 409 kts 92°
2026-05-06 16:39 -12.85787 -39.73988 26210 ft 406 kts 92°
2026-05-06 16:40 -12.85816 -39.71109 25729 ft 403 kts 92°
2026-05-06 16:40 -12.85841 -39.68276 25253 ft 401 kts 92°
2026-05-06 16:40 -12.85867 -39.65418 24757 ft 400 kts 92°
2026-05-06 16:40 -12.85894 -39.62571 24255 ft 399 kts 92°
2026-05-06 16:41 -12.85921 -39.59729 23752 ft 398 kts 92°
2026-05-06 16:41 -12.85953 -39.56896 23188 ft 397 kts 92°
2026-05-06 16:41 -12.85984 -39.54068 22689 ft 394 kts 92°
2026-05-06 16:41 -12.86014 -39.51271 22192 ft 391 kts 92°
2026-05-06 16:42 -12.86042 -39.48490 21713 ft 389 kts 92°
2026-05-06 16:42 -12.86068 -39.45723 21233 ft 386 kts 91°
2026-05-06 16:42 -12.86092 -39.43015 20772 ft 383 kts 91°
2026-05-06 16:42 -12.86114 -39.40292 20299 ft 381 kts 91°
2026-05-06 16:43 -12.86137 -39.37586 19898 ft 377 kts 91°
2026-05-06 16:43 -12.86160 -39.34947 19477 ft 374 kts 91°
2026-05-06 16:43 -12.86184 -39.32291 19077 ft 370 kts 91°
2026-05-06 16:43 -12.86208 -39.29670 18682 ft 367 kts 91°
2026-05-06 16:44 -12.86231 -39.27065 18249 ft 364 kts 91°
2026-05-06 16:44 -12.86254 -39.24481 17792 ft 361 kts 91°
2026-05-06 16:44 -12.86277 -39.21923 17351 ft 357 kts 91°
2026-05-06 16:44 -12.86301 -39.19388 16916 ft 354 kts 91°
2026-05-06 16:45 -12.86324 -39.16906 16492 ft 351 kts 91°
2026-05-06 16:45 -12.86344 -39.14412 16080 ft 348 kts 91°
2026-05-06 16:45 -12.86364 -39.11940 15686 ft 345 kts 91°
2026-05-06 16:45 -12.86383 -39.09488 15285 ft 342 kts 90°
2026-05-06 16:46 -12.86401 -39.07059 14891 ft 340 kts 90°
2026-05-06 16:46 -12.86417 -39.04651 14494 ft 337 kts 90°
2026-05-06 16:46 -12.86436 -39.02252 14106 ft 334 kts 90°
2026-05-06 16:46 -12.86456 -38.99882 13714 ft 332 kts 90°
2026-05-06 16:47 -12.86473 -38.97528 13287 ft 329 kts 90°
2026-05-06 16:47 -12.86488 -38.95220 12876 ft 325 kts 90°
2026-05-06 16:47 -12.86504 -38.92913 12476 ft 322 kts 91°
2026-05-06 16:47 -12.86525 -38.90628 12078 ft 319 kts 91°
2026-05-06 16:48 -12.86770 -38.88392 11668 ft 315 kts 104°
2026-05-06 16:48 -12.87466 -38.86288 11259 ft 312 kts 109°
2026-05-06 16:48 -12.88206 -38.84190 10838 ft 309 kts 109°
2026-05-06 16:48 -12.88926 -38.82124 10419 ft 307 kts 109°
2026-05-06 16:49 -12.89641 -38.80063 9976 ft 306 kts 109°
2026-05-06 16:49 -12.90363 -38.77982 9230 ft 313 kts 109°
2026-05-06 16:49 -12.91092 -38.75887 8746 ft 310 kts 109°
2026-05-06 16:49 -12.91813 -38.73817 8273 ft 306 kts 109°
2026-05-06 16:50 -12.92525 -38.71774 7819 ft 303 kts 109°
2026-05-06 16:50 -12.93213 -38.69800 7352 ft 300 kts 109°
2026-05-06 16:50 -12.93875 -38.67901 6868 ft 299 kts 109°
2026-05-06 16:50 -12.94561 -38.65921 6377 ft 297 kts 109°
2026-05-06 16:51 -12.95249 -38.63933 5886 ft 295 kts 110°
2026-05-06 16:51 -12.95927 -38.61976 5399 ft 286 kts 110°
2026-05-06 16:51 -12.96318 -38.60031 4944 ft 275 kts 91°
2026-05-06 16:51 -12.96089 -38.58124 4429 ft 268 kts 80°
2026-05-06 16:52 -12.95677 -38.56262 3693 ft 268 kts 79°
2026-05-06 16:52 -12.95283 -38.54399 2941 ft 266 kts 81°
2026-05-06 16:52 -12.94921 -38.52591 2608 ft 248 kts 81°
2026-05-06 16:52 -12.94591 -38.50937 2509 ft 228 kts 82°
2026-05-06 16:53 -12.94285 -38.49401 2510 ft 212 kts 82°
2026-05-06 16:53 -12.94008 -38.48016 2500 ft 195 kts 82°
2026-05-06 16:53 -12.93745 -38.46695 2540 ft 187 kts 82°
2026-05-06 16:53 -12.93493 -38.45434 2295 ft 172 kts 82°
2026-05-06 16:54 -12.93264 -38.44296 2099 ft 153 kts 83°
2026-05-06 16:54 -12.93062 -38.43289 1909 ft 138 kts 82°
2026-05-06 16:54 -12.92871 -38.42324 1726 ft 139 kts 83°
2026-05-06 16:54 -12.92677 -38.41351 1542 ft 138 kts 84°
2026-05-06 16:55 -12.92486 -38.40398 1368 ft 136 kts 83°
2026-05-06 16:55 -12.92297 -38.39446 1187 ft 137 kts 85°
2026-05-06 16:55 -12.92103 -38.38478 1007 ft 141 kts 85°
2026-05-06 16:55 -12.91909 -38.37506 835 ft 136 kts 83°
2026-05-06 16:56 -12.91719 -38.36564 668 ft 135 kts 86°
2026-05-06 16:56 -12.91529 -38.35609 487 ft 135 kts 90°
2026-05-06 16:56 -12.91346 -38.34664 276 ft 133 kts 84°
2026-05-06 16:56 -12.91151 -38.33728 108 ft 134 kts 86°
2026-05-06 16:57 -12.90969 -38.32815 48 ft 121 kts 84°
2026-05-06 16:57 -12.90850 -38.32200 51 ft 47 kts 77°
2026-05-06 16:57 -12.90792 -38.31930 48 ft 36 kts 78°
2026-05-06 16:57 -12.90770 -38.31760 46 ft 17 kts 109°
2026-05-06 16:58 -12.90860 -38.31716 52 ft 14 kts 173°
2026-05-06 16:58 -12.90921 -38.31762 53 ft 11 kts 252°
2026-05-06 16:58 -12.90934 -38.31838 52 ft 10 kts 259°
2026-05-06 16:58 -12.90947 -38.31909 51 ft 10 kts 258°
2026-05-06 16:59 -12.90961 -38.31976 50 ft 9 kts 258°
2026-05-06 16:59 -12.90973 -38.32038 50 ft 8 kts 258°
2026-05-06 16:59 -12.90984 -38.32096 53 ft 10 kts 258°
2026-05-06 16:59 -12.91006 -38.32201 52 ft 18 kts 258°
2026-05-06 17:00 -12.91034 -38.32347 51 ft 24 kts 258°
2026-05-06 17:00 -12.91074 -38.32526 49 ft 27 kts 256°
2026-05-06 17:00 -12.91113 -38.32720 50 ft 29 kts 263°
2026-05-06 17:00 -12.91152 -38.32927 47 ft 30 kts 258°
2026-05-06 17:01 -12.91194 -38.33111 44 ft 16 kts 238°
2026-05-06 17:01 -12.91270 -38.33115 44 ft 11 kts 171°
2026-05-06 17:01 -12.91353 -38.33099 56 ft 13 kts 168°
2026-05-06 17:01 -12.91446 -38.33082 44 ft 14 kts 184°
2026-05-06 17:02 -12.91528 -38.33134 44 ft 14 kts 249°
2026-05-06 17:02 -12.91547 -38.33237 44 ft 15 kts 260°
2026-05-06 17:02 -12.91545 -38.33276 44 ft 2 kts 311°
2026-05-06 17:02 -12.91525 -38.33283 44 ft 4 kts 348°
2026-05-06 17:03 -12.91490 -38.33288 44 ft 6 kts 351°
2026-05-06 17:03 -12.91475 -38.33290 44 ft 0 kts 351°